GFSNIL_prec_precacc_132.txt.gz
Total_Precipitation_Accumulation
0.22 0.21 0.32 0.45 0.69 0.67 0.73 0.80 0.45 0.48 0.41 0.28 0.14 0.09 0.15 0.10 0.05 0.06 0.04 0.03 0.05 0.08
0.20 0.16 0.16 0.41 0.59 0.51 0.66 0.83 0.95 0.47 0.37 0.26 0.20 0.10 0.13 0.09 0.11 0.19 0.20 0.01 0.02 0.02
0.16 0.16 0.22 0.28 0.44 0.57 0.73 1.88 1.69 0.80 0.43 0.37 0.27 0.29 0.23 0.10 0.06 0.08 0.09 0.02 0.04 0.04
0.33 0.16 0.17 0.23 0.36 0.53 0.64 0.76 0.83 1.30 0.53 0.64 0.53 0.34 0.42 0.37 0.25 0.23 0.15 0.07 0.08 0.07
0.94 0.77 0.46 0.32 0.31 0.43 0.54 0.58 0.70 0.64 0.78 0.81 0.56 0.63 0.54 0.54 0.47 0.47 0.31 0.20 0.21 0.16
1.10 1.01 0.96 0.77 0.80 0.52 0.42 0.52 0.46 0.66 0.97 0.86 0.73 0.82 0.97 1.02 0.81 0.63 0.52 0.34 0.29 0.18
1.18 0.93 0.85 0.74 0.75 0.59 0.54 0.56 0.35 0.41 0.56 0.55 0.47 0.58 0.80 1.12 1.27 0.84 0.65 0.86 0.60 0.53
2.15 1.43 1.29 1.10 1.18 0.95 0.67 0.59 0.47 0.45 0.55 0.67 0.79 0.81 0.84 0.77 0.78 0.68 0.77 0.79 0.90 1.05
2.08 1.94 1.48 1.34 1.14 0.99 0.87 0.82 0.74 0.64 0.67 0.84 0.80 0.72 0.58 0.39 0.45 0.70 0.74 0.69 0.79 0.87
1.36 0.99 0.90 0.87 1.03 1.07 1.08 1.03 1.00 0.98 1.06 0.90 0.63 0.60 0.56 0.52 0.26 0.47 0.71 0.88 0.99 0.89
1.21 1.24 1.10 0.86 0.78 0.80 0.82 0.96 1.07 0.82 0.73 0.85 0.95 1.12 0.77 0.69 0.34 0.27 0.53 0.72 0.68 0.70
1.19 0.97 1.05 1.03 1.13 1.15 1.00 0.94 1.01 1.10 0.98 0.77 0.71 0.83 0.62 0.55 0.46 0.42 0.52 0.65 0.41 0.39
2.83 1.71 1.29 1.61 1.77 1.76 1.84 1.46 1.04 0.86 0.64 0.48 0.37 0.48 0.43 0.43 0.43 0.38 0.42 0.36 0.24 0.49
2.09 2.30 1.93 2.24 2.27 2.19 2.07 1.86 1.53 1.36 1.13 0.94 0.68 0.62 0.56 0.42 0.29 0.31 0.59 0.44 0.26 0.16

GFSNIL_prec_precacc_138.txt.gz
Total_Precipitation_Accumulation
0.22 0.21 0.32 0.46 0.69 0.67 0.73 0.80 0.45 0.49 0.45 0.32 0.18 0.12 0.18 0.13 0.06 0.06 0.04 0.03 0.05 0.08
0.20 0.16 0.16 0.43 0.59 0.51 0.66 0.83 0.95 0.47 0.37 0.29 0.25 0.12 0.14 0.09 0.11 0.19 0.20 0.01 0.02 0.02
0.16 0.16 0.22 0.28 0.44 0.57 0.73 1.88 1.69 0.81 0.45 0.38 0.29 0.32 0.24 0.10 0.06 0.08 0.09 0.02 0.04 0.04
0.33 0.16 0.17 0.23 0.36 0.53 0.64 0.76 0.84 1.31 0.55 0.66 0.57 0.38 0.43 0.37 0.26 0.23 0.15 0.07 0.08 0.07
0.94 0.77 0.46 0.32 0.31 0.43 0.55 0.59 0.70 0.66 0.81 0.89 0.61 0.71 0.58 0.56 0.53 0.50 0.31 0.23 0.22 0.16
1.11 1.01 0.96 0.77 0.80 0.52 0.43 0.53 0.47 0.67 0.97 0.89 0.78 0.85 0.99 1.08 0.88 0.65 0.53 0.39 0.30 0.27
1.22 0.93 0.85 0.74 0.75 0.59 0.54 0.56 0.36 0.43 0.58 0.56 0.55 0.59 0.83 1.13 1.39 0.93 0.69 0.92 0.79 0.69
2.29 1.50 1.31 1.10 1.19 0.95 0.67 0.59 0.51 0.52 0.58 0.74 0.81 0.81 0.84 0.77 0.86 0.86 0.92 0.97 1.08 1.17
2.26 2.10 1.64 1.42 1.17 1.01 0.88 0.82 0.78 0.70 0.73 0.90 0.81 0.76 0.59 0.40 0.50 0.81 0.84 0.75 0.79 0.87
1.59 1.22 1.05 1.02 1.19 1.13 1.13 1.11 1.07 1.07 1.13 0.93 0.64 0.64 0.65 0.60 0.32 0.50 0.72 0.88 0.99 0.89
1.51 1.51 1.33 1.04 0.92 0.92 0.96 1.08 1.20 0.95 0.80 0.91 0.98 1.24 0.91 0.79 0.39 0.30 0.55 0.73 0.71 0.71
1.30 1.09 1.19 1.19 1.27 1.26 1.10 1.05 1.12 1.19 1.07 0.87 0.78 0.99 0.81 0.70 0.57 0.51 0.63 0.74 0.45 0.41
2.89 1.86 1.42 1.73 1.91 1.88 1.96 1.56 1.12 0.95 0.75 0.62 0.48 0.65 0.65 0.61 0.57 0.52 0.53 0.42 0.28 0.53
2.11 2.54 2.36 2.50 2.51 2.38 2.25 2.04 1.67 1.45 1.19 1.01 0.76 0.68 0.61 0.46 0.33 0.34 0.61 0.47 0.28 0.18

GFSNIL_prec_precacc_141.txt.gz
Total_Precipitation_Accumulation
0.22 0.21 0.32 0.46 0.69 0.67 0.73 0.80 0.45 0.49 0.45 0.32 0.18 0.13 0.19 0.14 0.09 0.06 0.05 0.05 0.05 0.08
0.20 0.16 0.16 0.43 0.59 0.51 0.66 0.83 0.95 0.47 0.37 0.29 0.25 0.12 0.14 0.10 0.14 0.20 0.20 0.01 0.02 0.02
0.16 0.16 0.22 0.28 0.44 0.57 0.73 1.88 1.69 0.81 0.45 0.38 0.29 0.32 0.24 0.10 0.07 0.10 0.09 0.02 0.04 0.04
0.33 0.16 0.17 0.23 0.36 0.53 0.64 0.76 0.84 1.31 0.55 0.66 0.57 0.40 0.44 0.37 0.28 0.25 0.17 0.08 0.09 0.08
0.94 0.77 0.46 0.32 0.31 0.43 0.55 0.59 0.70 0.67 0.82 0.89 0.62 0.76 0.61 0.58 0.53 0.50 0.32 0.26 0.24 0.21
1.11 1.01 0.96 0.77 0.80 0.52 0.43 0.53 0.47 0.67 0.97 0.90 0.81 0.90 1.03 1.12 0.92 0.67 0.58 0.43 0.36 0.35
1.22 0.93 0.85 0.74 0.75 0.59 0.54 0.56 0.36 0.44 0.59 0.58 0.61 0.64 0.88 1.17 1.44 0.99 0.72 0.99 0.93 0.91
2.29 1.50 1.31 1.10 1.19 0.95 0.67 0.59 0.51 0.55 0.61 0.78 0.86 0.87 0.89 0.84 0.94 0.96 0.99 1.06 1.29 1.30
2.26 2.10 1.64 1.42 1.17 1.01 0.88 0.82 0.78 0.70 0.74 0.97 0.86 0.84 0.63 0.46 0.57 0.88 0.92 0.89 0.93 0.92
1.60 1.23 1.05 1.02 1.19 1.13 1.13 1.11 1.07 1.07 1.13 0.94 0.69 0.67 0.71 0.67 0.40 0.60 0.80 0.95 1.02 0.90
1.52 1.52 1.33 1.05 0.93 0.92 0.96 1.08 1.20 0.95 0.81 0.94 1.02 1.25 0.97 0.91 0.47 0.35 0.58 0.75 0.72 0.71
1.31 1.09 1.20 1.20 1.30 1.27 1.12 1.05 1.12 1.20 1.08 0.88 0.78 1.00 0.88 0.80 0.63 0.58 0.68 0.77 0.48 0.43
2.89 1.87 1.43 1.74 1.92 1.89 1.99 1.58 1.14 0.99 0.79 0.63 0.49 0.66 0.69 0.68 0.65 0.61 0.58 0.44 0.29 0.56
2.11 2.54 2.36 2.51 2.52 2.39 2.28 2.08 1.70 1.50 1.26 1.07 0.81 0.73 0.68 0.54 0.42 0.39 0.63 0.49 0.30 0.18

GFSNIL_prec_precacc_144.txt.gz
Total_Precipitation_Accumulation
0.22 0.21 0.32 0.46 0.69 0.69 0.73 0.80 0.45 0.49 0.46 0.36 0.21 0.14 0.19 0.19 0.10 0.08 0.09 0.06 0.05 0.08
0.20 0.16 0.16 0.43 0.59 0.51 0.66 0.83 0.95 0.47 0.37 0.30 0.27 0.16 0.16 0.10 0.15 0.21 0.22 0.02 0.02 0.02
0.16 0.16 0.22 0.28 0.44 0.57 0.73 1.88 1.70 0.81 0.45 0.39 0.31 0.35 0.29 0.10 0.07 0.11 0.10 0.02 0.04 0.05
0.33 0.16 0.17 0.23 0.36 0.53 0.64 0.76 0.84 1.32 0.61 0.69 0.60 0.45 0.50 0.40 0.30 0.28 0.19 0.10 0.10 0.10
0.94 0.77 0.46 0.32 0.31 0.43 0.55 0.59 0.70 0.68 0.87 0.93 0.63 0.86 0.66 0.60 0.55 0.55 0.37 0.32 0.31 0.25
1.11 1.01 0.96 0.77 0.80 0.52 0.43 0.53 0.47 0.67 0.98 0.94 0.86 0.99 1.05 1.17 0.95 0.70 0.61 0.47 0.43 0.43
1.22 0.93 0.85 0.74 0.75 0.59 0.54 0.56 0.36 0.44 0.59 0.58 0.62 0.66 0.90 1.20 1.48 1.02 0.75 1.09 0.99 0.95
2.29 1.50 1.31 1.10 1.19 0.95 0.67 0.60 0.51 0.56 0.61 0.78 0.86 0.87 0.89 0.86 0.97 1.02 1.02 1.09 1.41 1.36
2.26 2.11 1.64 1.42 1.17 1.01 0.88 0.83 0.79 0.71 0.75 0.97 0.86 0.84 0.63 0.48 0.60 0.94 0.98 0.94 1.03 0.96
1.60 1.23 1.05 1.02 1.20 1.14 1.14 1.11 1.08 1.07 1.14 0.95 0.69 0.67 0.71 0.67 0.44 0.64 0.88 1.01 1.09 0.92
1.52 1.52 1.34 1.06 0.94 0.94 0.97 1.09 1.22 0.96 0.81 0.94 1.02 1.26 0.97 0.91 0.54 0.39 0.63 0.79 0.76 0.74
1.31 1.09 1.20 1.20 1.30 1.29 1.14 1.07 1.14 1.21 1.09 0.89 0.81 1.03 0.92 0.82 0.67 0.62 0.70 0.78 0.51 0.47
2.89 1.87 1.43 1.74 1.92 1.90 2.01 1.62 1.17 1.04 0.84 0.69 0.56 0.72 0.75 0.71 0.67 0.62 0.59 0.45 0.31 0.57
2.11 2.55 2.36 2.51 2.53 2.40 2.30 2.13 1.76 1.54 1.29 1.14 0.87 0.79 0.75 0.58 0.45 0.41 0.67 0.51 0.32 0.19

GFSNIL_prec_precacc_147.txt.gz
Total_Precipitation_Accumulation
0.22 0.21 0.32 0.46 0.69 0.69 0.73 0.80 0.46 0.50 0.46 0.36 0.22 0.16 0.26 0.23 0.10 0.08 0.10 0.06 0.05 0.08
0.20 0.16 0.16 0.43 0.59 0.51 0.66 0.83 0.95 0.47 0.37 0.30 0.27 0.16 0.19 0.11 0.15 0.21 0.23 0.02 0.02 0.02
0.16 0.16 0.22 0.28 0.44 0.57 0.73 1.88 1.70 0.81 0.45 0.39 0.31 0.35 0.30 0.10 0.07 0.12 0.10 0.02 0.04 0.05
0.33 0.16 0.17 0.23 0.36 0.53 0.64 0.76 0.85 1.33 0.62 0.69 0.60 0.47 0.54 0.42 0.30 0.33 0.22 0.11 0.11 0.11
0.94 0.77 0.46 0.32 0.31 0.44 0.56 0.59 0.70 0.70 0.91 0.94 0.63 0.86 0.69 0.61 0.55 0.56 0.39 0.35 0.39 0.30
1.11 1.01 0.96 0.77 0.80 0.53 0.48 0.56 0.47 0.67 1.01 0.97 0.87 1.01 1.07 1.18 0.95 0.70 0.61 0.47 0.50 0.49
1.22 0.93 0.85 0.74 0.75 0.60 0.63 0.63 0.40 0.45 0.59 0.59 0.62 0.67 0.90 1.21 1.51 1.03 0.75 1.11 1.04 1.00
2.32 1.50 1.31 1.13 1.23 0.99 0.73 0.64 0.56 0.61 0.63 0.79 0.86 0.87 0.90 0.86 0.99 1.04 1.03 1.12 1.49 1.43
2.32 2.15 1.66 1.48 1.20 1.05 0.92 0.86 0.82 0.73 0.77 0.98 0.86 0.84 0.63 0.48 0.60 0.95 1.01 0.98 1.11 1.03
1.63 1.29 1.18 1.14 1.30 1.21 1.19 1.16 1.12 1.10 1.17 0.96 0.69 0.67 0.71 0.67 0.44 0.64 0.89 1.05 1.16 1.00
1.52 1.52 1.35 1.09 0.98 0.98 1.06 1.17 1.29 1.02 0.86 0.98 1.03 1.26 0.98 0.91 0.54 0.40 0.66 0.84 0.83 0.83
1.31 1.09 1.20 1.20 1.30 1.29 1.18 1.13 1.22 1.32 1.21 0.97 0.84 1.04 0.93 0.85 0.67 0.63 0.74 0.82 0.54 0.50
2.89 1.87 1.43 1.74 1.92 1.90 2.01 1.63 1.20 1.08 0.91 0.76 0.63 0.82 0.87 0.81 0.69 0.66 0.62 0.47 0.32 0.60
2.11 2.55 2.37 2.51 2.53 2.41 2.30 2.13 1.78 1.57 1.34 1.21 0.95 0.90 0.91 0.78 0.55 0.47 0.68 0.52 0.33 0.21